Home > Products > Valid Products > MTR

000
SAUS44 KMAF 290101 COR
MTRGDP
METAR KGDP 290051Z AUTO 25017KT 10SM CLR 23/M11 A3015 RMK AO2 PK WND
27029/0010 SLP142 T02331106





000
SAUS44 KMAF 290054
MTR6R6
METAR K6R6 290053Z AUTO 14008KT 27/04 A2997 RMK AO1 SLP123 T02720039





000
SAUS44 KMAF 290003 COR
MTRGDP
METAR KGDP 282351Z AUTO 26018G24KT 10SM CLR 26/M11 A3015 RMK AO2 PK
WND 26031/2309 SLP139 T02611106 10278 20222 55007





000
SAUS44 KMAF 290003 COR
MTRGDP
METAR KGDP 282351Z AUTO 26018G24KT 10SM CLR 26/M11 A3015 RMK AO2 PK
WND 26031/2309 SLP139 T02611106 10278 20222 55007





000
SAUS44 KMAF 290001 COR
MTRGDP
METAR KGDP 282351Z AUTO 26018G24KT 10SM CLR 26/M11 A3015 RMK AO2 PK
WND 26031/2309 SLP139 T02611106 10278 20222 55007





000
SAUS44 KMAF 290001 COR
MTRGDP
METAR KGDP 282351Z AUTO 26018G24KT 10SM CLR 26/M11 A3015 RMK AO2 PK
WND 26031/2309 SLP139 T02611106 10278 20222 55007





000
SAUS44 KMAF 290000 COR
MTRGDP
METAR KGDP 282351Z AUTO 26018G24KT 10SM CLR 26/M11 A3015 RMK AO2 PK
WND 26031/2309 SLP139 T02611106 10278 20222 55007





000
SAUS44 KMAF 290000 COR
MTRGDP
METAR KGDP 282351Z AUTO 26018G24KT 10SM CLR 26/M11 A3015 RMK AO2 PK
WND 26031/2309 SLP139 T02611106 10278 20222 55007





000
SAUS44 KMAF 282359 COR
MTRGDP
METAR KGDP 282351Z AUTO 26018G24KT 10SM CLR 26/M11 A3015 RMK AO2 PK
WND 26031/2309 SLP139 T02611106 10278 20222 55007





000
SAUS44 KMAF 282359 COR
MTRGDP
METAR KGDP 282351Z AUTO 26018G24KT 10SM CLR 26/M11 A3015 RMK AO2 PK
WND 26031/2309 SLP139 T02611106 10278 20222 55007





000
SAUS44 KMAF 282354
MTR6R6
METAR K6R6 282353Z AUTO 14012KT 30/04 A2996 RMK AO1 SLP119 T03000039
10317 20278 55010





000
SAUS44 KMAF 282354
MTR6R6
METAR K6R6 282353Z AUTO 14012KT 30/04 A2996 RMK AO1 SLP119 T03000039
10317 20278 55010





000
SAUS44 KMAF 282259 COR
MTR6R6
METAR K6R6 282253Z AUTO 14012KT 31/04 A2996 RMK AO1 SLP116 T03060044





000
SAUS44 KMAF 282259 COR
MTRGDP
METAR KGDP 282251Z AUTO 27017G22KT 10SM CLR 27/M08 A3014 RMK AO2 PK
WND 26026/2210 SLP132 T02721083





000
SAUS44 KMAF 282259 COR
MTR6R6
METAR K6R6 282253Z AUTO 14012KT 31/04 A2996 RMK AO1 SLP116 T03060044





000
SAUS44 KMAF 282259 COR
MTRGDP
METAR KGDP 282251Z AUTO 27017G22KT 10SM CLR 27/M08 A3014 RMK AO2 PK
WND 26026/2210 SLP132 T02721083





000
SAUS44 KMAF 282255
MTR6R6
METAR K6R6 282253Z AUTO 14012KT 31/04 A2996 RMK AO1 SLP116 T03060044





000
SAUS44 KMAF 282255
MTR6R6
METAR K6R6 282253Z AUTO 14012KT 31/04 A2996 RMK AO1 SLP116 T03060044





000
SAUS44 KMAF 282159 COR
MTRGDP
METAR KGDP 282151Z AUTO 27016G29KT 10SM CLR 27/M07 A3015 RMK AO2 PK
WND 25029/2148 SLP138 T02721072





000
SAUS44 KMAF 282154
MTR6R6
METAR K6R6 282153Z AUTO 14012G17KT 31/03 A2997 RMK AO1 SLP121
T03060033





000
SAUS44 KMAF 282102 COR
MTR6R6
METAR K6R6 282053Z AUTO 18008KT 140V220 30/02 A2999 RMK AO1 SLP127
T03000022 58028





000
SAUS44 KMAF 282100 COR
MTR6R6
METAR K6R6 282053Z AUTO 18008KT 140V220 30/02 A2999 RMK AO1 SLP127
T03000022 58028





000
SAUS44 KMAF 282059 COR
MTR6R6
METAR K6R6 282053Z AUTO 18008KT 140V220 30/02 A2999 RMK AO1 SLP127
T03000022 58028





000
SAUS44 KMAF 282002 COR
MTRGDP
METAR KGDP 281951Z AUTO 26017G23KT 10SM CLR 26/M07 A3020 RMK AO2 PK
WND 26027/1921 SLP151 T02611067





000
SAUS44 KMAF 282001 COR
MTRGDP
METAR KGDP 281951Z AUTO 26017G23KT 10SM CLR 26/M07 A3020 RMK AO2 PK
WND 26027/1921 SLP151 T02611067





000
SAUS44 KMAF 282000 COR
MTRGDP
METAR KGDP 281951Z AUTO 26017G23KT 10SM CLR 26/M07 A3020 RMK AO2 PK
WND 26027/1921 SLP151 T02611067





000
SAUS44 KMAF 281959 COR
MTRGDP
METAR KGDP 281951Z AUTO 26017G23KT 10SM CLR 26/M07 A3020 RMK AO2 PK
WND 26027/1921 SLP151 T02611067





000
SAUS44 KMAF 281954
MTR6R6
METAR K6R6 281953Z AUTO 18007G18KT 29/03 A3003 RMK AO1 SLP139
T02940028





000
SAUS44 KMAF 281854
MTR6R6
METAR K6R6 281853Z AUTO 18010G17KT 29/04 A3005 RMK AO1 SLP148
T02890039





000
SAUS44 KMAF 281854
MTR6R6
METAR K6R6 281853Z AUTO 18010G17KT 29/04 A3005 RMK AO1 SLP148
T02890039





000
SAUS44 KMAF 281759 COR
MTRGDP
METAR KGDP 281751Z AUTO 24016KT 10SM CLR 23/M06 A3023 RMK AO2 SLP172
T02281056 10228 20117 58002





000
SAUS44 KMAF 281759 COR
MTRGDP
METAR KGDP 281751Z AUTO 24016KT 10SM CLR 23/M06 A3023 RMK AO2 SLP172
T02281056 10228 20117 58002





000
SAUS44 KMAF 281754
MTR6R6
METAR K6R6 281753Z AUTO 20013KT 28/03 A3008 RMK AO1 SLP156 T02780028
10278 20083 58009





000
SAUS44 KMAF 281754
MTR6R6
METAR K6R6 281753Z AUTO 20013KT 28/03 A3008 RMK AO1 SLP156 T02780028
10278 20083 58009





000
SAUS44 KMAF 281654
MTR6R6
METAR K6R6 281653Z AUTO 22010KT 26/02 A3011 RMK AO1 SLP166 T02560022





000
SAUS44 KMAF 281654
MTR6R6
METAR K6R6 281653Z AUTO 22010KT 26/02 A3011 RMK AO1 SLP166 T02560022





000
SAUS44 KMAF 281554
MTR6R6
METAR K6R6 281553Z AUTO 22009KT 22/03 A3011 RMK AO1 SLP172 T02220028





000
SAUS44 KMAF 281454
MTR6R6
METAR K6R6 281453Z AUTO 22011KT 19/04 A3011 RMK AO1 SLP170 T01890039
50004





000
SAUS44 KMAF 281454
MTR6R6
METAR K6R6 281453Z AUTO 22011KT 19/04 A3011 RMK AO1 SLP170 T01890039
50004





000
SAUS44 KMAF 281354
MTR6R6
METAR K6R6 281353Z AUTO 26003KT 14/06 A3011 RMK AO1 SLP173 T01390056





000
SAUS44 KMAF 281259 COR
MTRGDP
METAR KGDP 281251Z AUTO 25016KT 10SM CLR 14/M08 A3022 RMK AO2 SLP173
T01391078





000
SAUS44 KMAF 281259 COR
MTRGDP
METAR KGDP 281251Z AUTO 25016KT 10SM CLR 14/M08 A3022 RMK AO2 SLP173
T01391078





000
SAUS44 KMAF 281254
MTR6R6
METAR K6R6 281253Z AUTO 00000KT 09/04 A3010 RMK AO1 SLP172 T00940044





000
SAUS44 KMAF 281254
MTR6R6
METAR K6R6 281253Z AUTO 00000KT 09/04 A3010 RMK AO1 SLP172 T00940044





000
SAUS44 KMAF 281159 COR
MTRGDP
METAR KGDP 281151Z AUTO 22012KT 10SM CLR 12/M07 A3020 RMK AO2 SLP166
T01221067 10167 20117 53001





000
SAUS44 KMAF 281159 COR
MTRGDP
METAR KGDP 281151Z AUTO 22012KT 10SM CLR 12/M07 A3020 RMK AO2 SLP166
T01221067 10167 20117 53001





000
SAUS44 KMAF 281154
MTR6R6
METAR K6R6 281153Z AUTO 35005KT 09/04 A3009 RMK AO1 SLP167 T00890044
10150 20089 55000





000
SAUS44 KMAF 281154
MTR6R6
METAR K6R6 281153Z AUTO 35005KT 09/04 A3009 RMK AO1 SLP167 T00890044
10150 20089 55000





000
SAUS44 KMAF 281059 COR
MTR6R6
METAR K6R6 281053Z AUTO 01006KT 11/04 A3009 RMK AO1 SLP164 T01060044





000
SAUS44 KMAF 281059 COR
MTR6R6
METAR K6R6 281053Z AUTO 01006KT 11/04 A3009 RMK AO1 SLP164 T01060044





000
SAUS44 KMAF 281059 COR
MTRGDP
METAR KGDP 281051Z AUTO 22014KT 10SM CLR 13/M08 A3019 RMK AO2 SLP159
T01331078





000
SAUS44 KMAF 281059 COR
MTRGDP
METAR KGDP 281051Z AUTO 22014KT 10SM CLR 13/M08 A3019 RMK AO2 SLP159
T01331078





000
SAUS44 KMAF 281054
MTR6R6
METAR K6R6 281053Z AUTO 01006KT 11/04 A3009 RMK AO1 SLP164 T01060044





000
SAUS44 KMAF 281054
MTR6R6
METAR K6R6 281053Z AUTO 01006KT 11/04 A3009 RMK AO1 SLP164 T01060044





000
SAUS44 KMAF 281000 COR
MTRGDP
METAR KGDP 280951Z AUTO 24016KT 10SM CLR 14/M08 A3020 RMK AO2 SLP160
T01391078





000
SAUS44 KMAF 281000 COR
MTRGDP
METAR KGDP 280951Z AUTO 24016KT 10SM CLR 14/M08 A3020 RMK AO2 SLP160
T01391078





000
SAUS44 KMAF 280954
MTR6R6
METAR K6R6 280953Z AUTO 35005KT 10/05 A3009 RMK AO1 SLP163 T01000050





000
SAUS44 KMAF 280859 COR
MTRGDP
METAR KGDP 280851Z AUTO 25014KT 10SM CLR 15/M08 A3020 RMK AO2 SLP160
T01501083 56011





000
SAUS44 KMAF 280854
MTR6R6
METAR K6R6 280853Z AUTO 35006KT 12/04 A3009 RMK AO1 SLP166 T01170044
58010





000
SAUS44 KMAF 280854
MTR6R6
METAR K6R6 280853Z AUTO 35006KT 12/04 A3009 RMK AO1 SLP166 T01170044
58010





000
SAUS44 KMAF 280759 COR
MTRGDP
METAR KGDP 280751Z AUTO 27020KT 10SM CLR 16/M08 A3021 RMK AO2 SLP166
T01561083





000
SAUS44 KMAF 280759 COR
MTRGDP
METAR KGDP 280751Z AUTO 27020KT 10SM CLR 16/M08 A3021 RMK AO2 SLP166
T01561083





000
SAUS44 KMAF 280754
MTR6R6
METAR K6R6 280753Z AUTO 36007KT 13/04 A3010 RMK AO1 SLP169 T01280044





000
SAUS44 KMAF 280754
MTR6R6
METAR K6R6 280753Z AUTO 36007KT 13/04 A3010 RMK AO1 SLP169 T01280044





000
SAUS44 KMAF 280700 COR
MTRGDP
METAR KGDP 280651Z AUTO 26017KT 10SM CLR 17/M08 A3022 RMK AO2 SLP170
T01671083 402330067





000
SAUS44 KMAF 280654
MTR6R6
METAR K6R6 280653Z AUTO 36006KT 14/04 A3012 RMK AO1 SLP174 T01390039





000
SAUS44 KMAF 280559 COR
MTRGDP
METAR KGDP 280551Z AUTO 25013KT 10SM CLR 15/M07 A3024 RMK AO2 SLP181
T01501072 10222 20144 51006





000
SAUS44 KMAF 280559 COR
MTRGDP
METAR KGDP 280551Z AUTO 25013KT 10SM CLR 15/M07 A3024 RMK AO2 SLP181
T01501072 10222 20144 51006





000
SAUS44 KMAF 280554
MTR6R6
METAR K6R6 280553Z AUTO 01006KT 15/04 A3013 RMK AO1 SLP176 T01500044
10272 20144 402780078 51002





000
SAUS44 KMAF 280554
MTR6R6
METAR K6R6 280553Z AUTO 01006KT 15/04 A3013 RMK AO1 SLP176 T01500044
10272 20144 402780078 51002





000
SAUS44 KMAF 280454
MTR6R6
METAR K6R6 280453Z AUTO 04004KT 16/04 A3013 RMK AO1 SLP177 T01610039





000
SAUS44 KMAF 280454
MTR6R6
METAR K6R6 280453Z AUTO 04004KT 16/04 A3013 RMK AO1 SLP177 T01610039





000
SAUS44 KMAF 280400 COR
MTRGDP
METAR KGDP 280351Z AUTO 25015KT 10SM CLR 17/M08 A3023 RMK AO2 PK WND
25027/0326 SLP187 T01671078





000
SAUS44 KMAF 280354
MTR6R6
METAR K6R6 280353Z AUTO 12004KT 17/04 A3013 RMK AO1 SLP178 T01670044





000
SAUS44 KMAF 280354
MTR6R6
METAR K6R6 280353Z AUTO 12004KT 17/04 A3013 RMK AO1 SLP178 T01670044





000
SAUS44 KMAF 280254
MTR6R6
METAR K6R6 280253Z AUTO 15006KT 18/04 A3012 RMK AO1 SLP178 T01830044
53013





000
SAUS44 KMAF 280254
MTR6R6
METAR K6R6 280253Z AUTO 15006KT 18/04 A3012 RMK AO1 SLP178 T01830044
53013





000
SAUS44 KMAF 280159 COR
MTRGDP
METAR KGDP 280151Z AUTO 24019KT 10SM CLR 17/M07 A3019 RMK AO2 SLP179
T01721072





000
SAUS44 KMAF 280159 COR
MTRGDP
METAR KGDP 280151Z AUTO 24019KT 10SM CLR 17/M07 A3019 RMK AO2 SLP179
T01721072





000
SAUS44 KMAF 280154
MTR6R6
METAR K6R6 280153Z AUTO 15006KT 20/03 A3010 RMK AO1 SLP173 T02000028





000
SAUS44 KMAF 280054
MTR6R6
METAR K6R6 280053Z AUTO 15010KT 23/02 A3009 RMK AO1 SLP169 T02330022





000
SAUS44 KMAF 280001 COR
MTRGDP
METAR KGDP 272351Z AUTO 25016KT 10SM CLR 22/M05 A3019 RMK AO2 SLP171
T02221050 10233 20178 56013





000
SAUS44 KMAF 280001 COR
MTRGDP
METAR KGDP 272351Z AUTO 25016KT 10SM CLR 22/M05 A3019 RMK AO2 SLP171
T02221050 10233 20178 56013





000
SAUS44 KMAF 272354
MTR6R6
METAR K6R6 272353Z AUTO 20008KT 27/M04 A3008 RMK AO1 SLP161
T02721039 10278 20233 56016





000
SAUS44 KMAF 272254
MTR6R6
METAR K6R6 272253Z AUTO 20008KT 27/M03 A3009 RMK AO1 SLP164
T02721028





000
SAUS44 KMAF 272254
MTR6R6
METAR K6R6 272253Z AUTO 20008KT 27/M03 A3009 RMK AO1 SLP164
T02721028





000
SAUS44 KMAF 272154
MTR6R6
METAR K6R6 272153Z AUTO 27/M02 A3010 RMK AO1 SLP169 T02721022





000
SAUS44 KMAF 272059 COR
MTRGDP
METAR KGDP 272051Z AUTO 24021G30KT 10SM CLR 22/M02 A3024 RMK AO2 PK
WND 24030/2048 SLP187 T02221022 58022





000
SAUS44 KMAF 272054
MTR6R6
METAR K6R6 272053Z AUTO 25009KT 27/M02 A3013 RMK AO1 SLP178
T02671017 58025





000
SAUS44 KMAF 271959 COR
MTRGDP
METAR KGDP 271951Z AUTO 25021G30KT 10SM CLR 21/M03 A3027 RMK AO2 PK
WND 24030/1923 SLP199 T02111028





000
SAUS44 KMAF 271959 COR
MTRGDP
METAR KGDP 271951Z AUTO 25021G30KT 10SM CLR 21/M03 A3027 RMK AO2 PK
WND 24030/1923 SLP199 T02111028





000
SAUS44 KMAF 271954
MTR6R6
METAR K6R6 271953Z AUTO 22013G17KT 26/M02 A3016 RMK AO1 SLP188
T02611017





000
SAUS44 KMAF 271854
MTR6R6
METAR K6R6 271853Z AUTO 24016KT 25/M01 A3019 RMK AO1 SLP199
T02501006





000
SAUS44 KMAF 271854
MTR6R6
METAR K6R6 271853Z AUTO 24016KT 25/M01 A3019 RMK AO1 SLP199
T02501006





000
SAUS44 KMAF 271754
MTR6R6
METAR K6R6 271753Z AUTO 24014G21KT 23/01 A3021 RMK AO1 SLP207
T02330011 10233 20078 58005





000
SAUS44 KMAF 271754
MTR6R6
METAR K6R6 271753Z AUTO 24014G21KT 23/01 A3021 RMK AO1 SLP207
T02330011 10233 20078 58005





000
SAUS44 KMAF 271659 COR
MTRGDP
METAR KGDP 271651Z AUTO 23017KT 10SM CLR 13/00 A3033 RMK AO2 SLP231
T01330000





000
SAUS44 KMAF 271659 COR
MTRGDP
METAR KGDP 271651Z AUTO 23017KT 10SM CLR 13/00 A3033 RMK AO2 SLP231
T01330000





000
SAUS44 KMAF 271654
MTR6R6
METAR K6R6 271653Z AUTO 24017KT 21/02 A3022 RMK AO1 SLP213 T02110017





000
SAUS44 KMAF 271654
MTR6R6
METAR K6R6 271653Z AUTO 24017KT 21/02 A3022 RMK AO1 SLP213 T02110017





000
SAUS44 KMAF 271554
MTR6R6
METAR K6R6 271553Z AUTO 25014G20KT 18/02 A3022 RMK AO1 SLP216
T01830017





000
SAUS44 KMAF 271500 COR
MTRGDP
METAR KGDP 271451Z AUTO 25017KT 10SM CLR 10/M02 A3031 RMK AO2 SLP230
T01001017 51012





000
SAUS44 KMAF 271454
MTR6R6
METAR K6R6 271453Z AUTO 24009KT 15/03 A3022 RMK AO1 SLP217 T01500033
52004





000
SAUS44 KMAF 271454
MTR6R6
METAR K6R6 271453Z AUTO 24009KT 15/03 A3022 RMK AO1 SLP217 T01500033
52004





000
SAUS44 KMAF 271354
MTR6R6
METAR K6R6 271353Z AUTO 22007KT 11/03 A3022 RMK AO1 SLP218 T01110028





000
SAUS44 KMAF 271254
MTR6R6
METAR K6R6 271253Z AUTO 28005KT 08/02 A3021 RMK AO1 SLP215 T00780022





000
SAUS44 KMAF 271155
MTR6R6
METAR K6R6 271153Z AUTO 28007KT 09/02 A3021 RMK AO1 SLP212 T00890022
10111 20078 55003





000
SAUS44 KMAF 271155
MTR6R6
METAR K6R6 271153Z AUTO 28007KT 09/02 A3021 RMK AO1 SLP212 T00890022
10111 20078 55003





000
SAUS44 KMAF 271059 COR
MTRGDP
METAR KGDP 271051Z AUTO 23013KT 10SM CLR 08/M04 A3026 RMK AO2 SLP213
T00831039





000
SAUS44 KMAF 271059 COR
MTRGDP
METAR KGDP 271051Z AUTO 23013KT 10SM CLR 08/M04 A3026 RMK AO2 SLP213
T00831039





000
SAUS44 KMAF 271054
MTR6R6
METAR K6R6 271053Z AUTO 29007KT 08/02 A3021 RMK AO1 SLP212 T00830022





000
SAUS44 KMAF 271054
MTR6R6
METAR K6R6 271053Z AUTO 29007KT 08/02 A3021 RMK AO1 SLP212 T00830022





000
SAUS44 KMAF 271000 COR
MTRGDP
METAR KGDP 270951Z AUTO 23015KT 10SM CLR 08/M03 A3027 RMK AO2 SLP214
T00781033





000
SAUS44 KMAF 270954
MTR6R6
METAR K6R6 270953Z AUTO 28007KT 08/03 A3020 RMK AO1 SLP211 T00780033





000
SAUS44 KMAF 270854
MTR6R6
METAR K6R6 270853Z AUTO 23007KT 08/03 A3022 RMK AO1 SLP217 T00830033
58010





000
SAUS44 KMAF 270854
MTR6R6
METAR K6R6 270853Z AUTO 23007KT 08/03 A3022 RMK AO1 SLP217 T00830033
58010





000
SAUS44 KMAF 270759 COR
MTRGDP
METAR KGDP 270751Z AUTO 25015KT 10SM CLR 08/M03 A3029 RMK AO2 SLP226
T00781033





000
SAUS44 KMAF 270754
MTR6R6
METAR K6R6 270753Z AUTO 29008KT 09/03 A3024 RMK AO1 SLP224 T00890033





000
SAUS44 KMAF 270754
MTR6R6
METAR K6R6 270753Z AUTO 29008KT 09/03 A3024 RMK AO1 SLP224 T00890033





000
SAUS44 KMAF 270659 COR
MTRGDP
METAR KGDP 270651Z AUTO 24013KT 10SM CLR 08/M03 A3029 RMK AO2 SLP227
T00831033 401560011





000
SAUS44 KMAF 270659 COR
MTRGDP
METAR KGDP 270651Z AUTO 24013KT 10SM CLR 08/M03 A3029 RMK AO2 SLP227
T00831033 401560011





000
SAUS44 KMAF 270654
MTR6R6
METAR K6R6 270653Z AUTO 30007KT 09/03 A3026 RMK AO1 SLP230 T00940033





000
SAUS44 KMAF 270654
MTR6R6
METAR K6R6 270653Z AUTO 30007KT 09/03 A3026 RMK AO1 SLP230 T00940033





000
SAUS44 KMAF 270554
MTR6R6
METAR K6R6 270553Z AUTO 30006KT 11/03 A3025 RMK AO1 SLP229 T01060033
10194 20100 402060100 51012





000
SAUS44 KMAF 270554
MTR6R6
METAR K6R6 270553Z AUTO 30006KT 11/03 A3025 RMK AO1 SLP229 T01060033
10194 20100 402060100 51012





000
SAUS44 KMAF 270454
MTR6R6
METAR K6R6 270453Z AUTO 30007KT 12/03 A3025 RMK AO1 SLP226 T01170033





000
SAUS44 KMAF 270454
MTR6R6
METAR K6R6 270453Z AUTO 30007KT 12/03 A3025 RMK AO1 SLP226 T01170033





000
SAUS44 KMAF 270354
MTR6R6
METAR K6R6 270353Z AUTO 29007KT 12/03 A3024 RMK AO1 SLP223 T01220033





000
SAUS44 KMAF 270259 COR
MTRGDP
METAR KGDP 270251Z AUTO 19006KT 10SM CLR 10/M05 A3028 RMK AO2 SLP231
T01001050 53008





000
SAUS44 KMAF 270254
MTR6R6
METAR K6R6 270253Z AUTO 32005KT 12/03 A3022 RMK AO1 SLP218 T01220033
53016





000
SAUS44 KMAF 270254
MTR6R6
METAR K6R6 270253Z AUTO 32005KT 12/03 A3022 RMK AO1 SLP218 T01220033
53016





000
SAUS44 KMAF 270159 COR
MTRGDP
METAR KGDP 270151Z AUTO 24009KT 10SM CLR 11/M04 A3027 RMK AO2 SLP233
T01061044





000
SAUS44 KMAF 270154
MTR6R6
METAR K6R6 270153Z AUTO 33006KT 14/03 A3020 RMK AO1 SLP211 T01390033





000
SAUS44 KMAF 270154
MTR6R6
METAR K6R6 270153Z AUTO 33006KT 14/03 A3020 RMK AO1 SLP211 T01390033





000
SAUS44 KMAF 270059 COR
MTRGDP
METAR KGDP 270051Z AUTO 23011KT 10SM CLR 13/M04 A3026 RMK AO2 SLP226
T01281039





000
SAUS44 KMAF 270059 COR
MTRGDP
METAR KGDP 270051Z AUTO 23011KT 10SM CLR 13/M04 A3026 RMK AO2 SLP226
T01281039





000
SAUS44 KMAF 270054
MTR6R6
METAR K6R6 270053Z AUTO 35005KT 18/01 A3018 RMK AO1 SLP201 T01780006





000
SAUS44 KMAF 270054
MTR6R6
METAR K6R6 270053Z AUTO 35005KT 18/01 A3018 RMK AO1 SLP201 T01780006





000
SAUS44 KMAF 262354
MTR6R6
METAR K6R6 262353Z AUTO 02010KT 19/00 A3017 RMK AO1 SLP196 T01940000
10206 20161 55008





000
SAUS44 KMAF 262354
MTR6R6
METAR K6R6 262353Z AUTO 02010KT 19/00 A3017 RMK AO1 SLP196 T01940000
10206 20161 55008





000
SAUS44 KMAF 262259 COR
MTRGDP
METAR KGDP 262251Z AUTO VRB03KT 10SM CLR 13/M04 A3025 RMK AO2 SLP221
T01281044





000
SAUS44 KMAF 262259 COR
MTRGDP
METAR KGDP 262251Z AUTO VRB03KT 10SM CLR 13/M04 A3025 RMK AO2 SLP221
T01281044





000
SAUS44 KMAF 262254
MTR6R6
METAR K6R6 262253Z AUTO 02011G19KT 20/01 A3017 RMK AO1 SLP195
T02000006





000
SAUS44 KMAF 262159 COR
MTRGDP
METAR KGDP 262151Z AUTO 00000KT 10SM CLR 13/M05 A3027 RMK AO2 SLP228
T01281050





000
SAUS44 KMAF 262154
MTR6R6
METAR K6R6 262153Z AUTO 36011KT 20/01 A3018 RMK AO1 SLP198 T02000011





000
SAUS44 KMAF 262154
MTR6R6
METAR K6R6 262153Z AUTO 36011KT 20/01 A3018 RMK AO1 SLP198 T02000011





000
SAUS44 KMAF 262058 COR
MTRGDP
METAR KGDP 262051Z AUTO VRB05G16KT 10SM CLR 12/M05 A3029 RMK AO2
SLP233 T01171050 56013





000
SAUS44 KMAF 262058 COR
MTRGDP
METAR KGDP 262051Z AUTO VRB05G16KT 10SM CLR 12/M05 A3029 RMK AO2
SLP233 T01171050 56013





000
SAUS44 KMAF 262054
MTR6R6
METAR K6R6 262053Z AUTO 33015G22KT 19/02 A3019 RMK AO1 SLP203
T01940022 58023





000
SAUS44 KMAF 261959 COR
MTRGDP
METAR KGDP 261951Z AUTO 07011KT 10SM CLR 11/M06 A3031 RMK AO2 SLP240
T01111061





000
SAUS44 KMAF 261959 COR
MTRGDP
METAR KGDP 261951Z AUTO 07011KT 10SM CLR 11/M06 A3031 RMK AO2 SLP240
T01111061





000
SAUS44 KMAF 261954
MTR6R6
METAR K6R6 261953Z AUTO 35014G20KT 19/03 A3022 RMK AO1 SLP209
T01890028





000
SAUS44 KMAF 261954
MTR6R6
METAR K6R6 261953Z AUTO 35014G20KT 19/03 A3022 RMK AO1 SLP209
T01890028





000
SAUS44 KMAF 261854
MTR6R6
METAR K6R6 261853Z AUTO 36015G24KT 17/03 A3024 RMK AO1 PK WND
36026/1755 SLP218 T01720033





000
SAUS44 KMAF 261854
MTR6R6
METAR K6R6 261853Z AUTO 36015G24KT 17/03 A3024 RMK AO1 PK WND
36026/1755 SLP218 T01720033





000
SAUS44 KMAF 261803 COR
MTRGDP
METAR KGDP 261751Z AUTO 06022G30KT 10SM CLR 09/M06 A3033 RMK AO2 PK
WND 07032/1659 SLP245 T00941056 10100 20011 51014





000
SAUS44 KMAF 261803 COR
MTRGDP
METAR KGDP 261751Z AUTO 06022G30KT 10SM CLR 09/M06 A3033 RMK AO2 PK
WND 07032/1659 SLP245 T00941056 10100 20011 51014





000
SAUS44 KMAF 261802 COR
MTRGDP
METAR KGDP 261751Z AUTO 06022G30KT 10SM CLR 09/M06 A3033 RMK AO2 PK
WND 07032/1659 SLP245 T00941056 10100 20011 51014





000
SAUS44 KMAF 261802 COR
MTRGDP
METAR KGDP 261751Z AUTO 06022G30KT 10SM CLR 09/M06 A3033 RMK AO2 PK
WND 07032/1659 SLP245 T00941056 10100 20011 51014





000
SAUS44 KMAF 261800 COR
MTRGDP
METAR KGDP 261751Z AUTO 06022G30KT 10SM CLR 09/M06 A3033 RMK AO2 PK
WND 07032/1659 SLP245 T00941056 10100 20011 51014





000
SAUS44 KMAF 261800 COR
MTRGDP
METAR KGDP 261751Z AUTO 06022G30KT 10SM CLR 09/M06 A3033 RMK AO2 PK
WND 07032/1659 SLP245 T00941056 10100 20011 51014





000
SAUS44 KMAF 261759 COR
MTRGDP
METAR KGDP 261751Z AUTO 06022G30KT 10SM CLR 09/M06 A3033 RMK AO2 PK
WND 07032/1659 SLP245 T00941056 10100 20011 51014





000
SAUS44 KMAF 261759 COR
MTRGDP
METAR KGDP 261751Z AUTO 06022G30KT 10SM CLR 09/M06 A3033 RMK AO2 PK
WND 07032/1659 SLP245 T00941056 10100 20011 51014





000
SAUS44 KMAF 261758 COR
MTR6R6
METAR K6R6 261753Z AUTO 34016G27KT 16/03 A3027 RMK AO1 PK WND
35027/1723 SLP226 T01610033 10161 20106 50002





000
SAUS44 KMAF 261758 COR
MTRGDP
METAR KGDP 261751Z AUTO 06022G30KT 10SM CLR 09/M06 A3033 RMK AO2 PK
WND 07032/1659 SLP245 T00941056 10100 20011 51014





000
SAUS44 KMAF 261758 COR
MTRGDP
METAR KGDP 261751Z AUTO 06022G30KT 10SM CLR 09/M06 A3033 RMK AO2 PK
WND 07032/1659 SLP245 T00941056 10100 20011 51014





000
SAUS44 KMAF 261758 COR
MTR6R6
METAR K6R6 261753Z AUTO 34016G27KT 16/03 A3027 RMK AO1 PK WND
35027/1723 SLP226 T01610033 10161 20106 50002





000
SAUS44 KMAF 261756 COR
MTR6R6
METAR K6R6 261753Z AUTO 34016G27KT 16/03 A3027 RMK AO1 PK WND
35027/1723 SLP226 T01610033 10161 20106 50002





000
SAUS44 KMAF 261756 COR
MTR6R6
METAR K6R6 261753Z AUTO 34016G27KT 16/03 A3027 RMK AO1 PK WND
35027/1723 SLP226 T01610033 10161 20106 50002





000
SAUS44 KMAF 261755 COR
MTR6R6
METAR K6R6 261753Z AUTO 34016G27KT 16/03 A3027 RMK AO1 PK WND
35027/1723 SLP226 T01610033 10161 20106 50002





000
SAUS44 KMAF 261755 COR
MTR6R6
METAR K6R6 261753Z AUTO 34016G27KT 16/03 A3027 RMK AO1 PK WND
35027/1723 SLP226 T01610033 10161 20106 50002





000
SAUS44 KMAF 261754
MTR6R6
METAR K6R6 261753Z AUTO 34016G27KT 16/03 A3027 RMK AO1 PK WND
35027/1723 SLP226 T01610033 10161 20106 50002





000
SAUS44 KMAF 261654
MTR6R6
METAR K6R6 261653Z AUTO 34016G24KT 14/04 A3028 RMK AO1 PK WND
36030/1608 SLP234 T01440039





000
SAUS44 KMAF 261654
MTR6R6
METAR K6R6 261653Z AUTO 34016G24KT 14/04 A3028 RMK AO1 PK WND
36030/1608 SLP234 T01440039





000
SAUS44 KMAF 261554
MTR6R6
METAR K6R6 261553Z AUTO 35020G27KT 13/03 A3027 RMK AO1 PK WND
35029/1540 SLP232 T01330033





000
SAUS44 KMAF 261459 COR
MTRGDP
METAR KGDP 261451Z AUTO 04034G38KT 4SM HZ CLR 06/M03 A3029 RMK AO2
PK WND 04038/1451 SLP220 T00561033 50013





000
SAUS44 KMAF 261459 COR
MTRGDP
METAR KGDP 261451Z AUTO 04034G38KT 4SM HZ CLR 06/M03 A3029 RMK AO2
PK WND 04038/1451 SLP220 T00561033 50013





000
SAUS44 KMAF 261454
MTR6R6
METAR K6R6 261453Z AUTO 34013G24KT 11/03 A3026 RMK AO1 PK WND
34030/1417 SLP228 T01110033 53025





000
SAUS44 KMAF 261454
MTR6R6
METAR K6R6 261453Z AUTO 34013G24KT 11/03 A3026 RMK AO1 PK WND
34030/1417 SLP228 T01110033 53025





000
SAUS44 KMAF 261354
MTR6R6
METAR K6R6 261353Z AUTO 35020G30KT 11/03 A3023 RMK AO1 PK WND
35030/1351 SLP216 T01060033





000
SAUS44 KMAF 261354
MTR6R6
METAR K6R6 261353Z AUTO 35020G30KT 11/03 A3023 RMK AO1 PK WND
35030/1351 SLP216 T01060033





000
SAUS44 KMAF 261258 COR
MTRGDP
METAR KGDP 261251Z AUTO 06030KT 10SM CLR 01/M02 A3024 RMK AO2 PK WND
05037/1153 SLP212 T00111017





000
SAUS44 KMAF 261258 COR
MTRGDP
METAR KGDP 261251Z AUTO 06030KT 10SM CLR 01/M02 A3024 RMK AO2 PK WND
05037/1153 SLP212 T00111017





000
SAUS44 KMAF 261254
MTR6R6
METAR K6R6 261253Z AUTO 35015G24KT 11/03 A3021 RMK AO1 PK WND
35030/1200 SLP209 T01110033





000
SAUS44 KMAF 261254
MTR6R6
METAR K6R6 261253Z AUTO 35015G24KT 11/03 A3021 RMK AO1 PK WND
35030/1200 SLP209 T01110033





000
SAUS44 KMAF 261204 COR
MTRGDP
METAR KGDP 261151Z AUTO 05034KT 10SM CLR 03/M02 A3022 RMK AO2 PK WND
05038/1103 SLP196 T00281017 10083 20022 51012





000
SAUS44 KMAF 261204 COR
MTRGDP
METAR KGDP 261151Z AUTO 05034KT 10SM CLR 03/M02 A3022 RMK AO2 PK WND
05038/1103 SLP196 T00281017 10083 20022 51012





000
SAUS44 KMAF 261203 COR
MTRGDP
METAR KGDP 261151Z AUTO 05034KT 10SM CLR 03/M02 A3022 RMK AO2 PK WND
05038/1103 SLP196 T00281017 10083 20022 51012





000
SAUS44 KMAF 261203 COR
MTRGDP
METAR KGDP 261151Z AUTO 05034KT 10SM CLR 03/M02 A3022 RMK AO2 PK WND
05038/1103 SLP196 T00281017 10083 20022 51012





000
SAUS44 KMAF 261202 COR
MTRGDP
METAR KGDP 261151Z AUTO 05034KT 10SM CLR 03/M02 A3022 RMK AO2 PK WND
05038/1103 SLP196 T00281017 10083 20022 51012





000
SAUS44 KMAF 261200 COR
MTRGDP
METAR KGDP 261151Z AUTO 05034KT 10SM CLR 03/M02 A3022 RMK AO2 PK WND
05038/1103 SLP196 T00281017 10083 20022 51012





000
SAUS44 KMAF 261159 COR
MTRGDP
METAR KGDP 261151Z AUTO 05034KT 10SM CLR 03/M02 A3022 RMK AO2 PK WND
05038/1103 SLP196 T00281017 10083 20022 51012





000
SAUS44 KMAF 261159 COR
MTRGDP
METAR KGDP 261151Z AUTO 05034KT 10SM CLR 03/M02 A3022 RMK AO2 PK WND
05038/1103 SLP196 T00281017 10083 20022 51012





000
SAUS44 KMAF 261154
MTR6R6
METAR K6R6 261153Z AUTO 35015G23KT 11/04 A3018 RMK AO1 PK WND
36027/1054 SLP195 T01110039 10189 20111 53032





000
SAUS44 KMAF 261154
MTR6R6
METAR K6R6 261153Z AUTO 35015G23KT 11/04 A3018 RMK AO1 PK WND
36027/1054 SLP195 T01110039 10189 20111 53032





000
SAUS44 KMAF 261054
MTR6R6
METAR K6R6 261053Z AUTO 34021G28KT 12/04 A3013 RMK AO1 PK WND
35031/1008 SLP178 T01170039





000
SAUS44 KMAF 261054
MTR6R6
METAR K6R6 261053Z AUTO 34021G28KT 12/04 A3013 RMK AO1 PK WND
35031/1008 SLP178 T01170039





000
SAUS44 KMAF 260954
MTR6R6
METAR K6R6 260953Z AUTO 34020G30KT 12/04 A3011 RMK AO1 PK WND
36038/0939 SLP169 T01220039





000
SAUS44 KMAF 260859 COR
MTRGDP
METAR KGDP 260851Z AUTO 06034G39KT 10SM CLR 03/M02 A3018 RMK AO2 PK
WND 07043/0830 SLP176 T00331017 51018





000
SAUS44 KMAF 260859 COR
MTRGDP
METAR KGDP 260851Z AUTO 06034G39KT 10SM CLR 03/M02 A3018 RMK AO2 PK
WND 07043/0830 SLP176 T00331017 51018





000
SAUS44 KMAF 260854
MTR6R6
METAR K6R6 260853Z AUTO 35022G35KT 14/06 A3008 RMK AO1 PK WND
35038/0821 SLP156 T01390056 53040





000
SAUS44 KMAF 260854
MTR6R6
METAR K6R6 260853Z AUTO 35022G35KT 14/06 A3008 RMK AO1 PK WND
35038/0821 SLP156 T01390056 53040





000
SAUS44 KMAF 260754
MTR6R6
METAR K6R6 260753Z AUTO 36022G30KT 17/12 A2999 RMK AO1 PK WND
35030/0748 SLP126 T01670117





000
SAUS44 KMAF 260754
MTR6R6
METAR K6R6 260753Z AUTO 36022G30KT 17/12 A2999 RMK AO1 PK WND
35030/0748 SLP126 T01670117





000
SAUS44 KMAF 260655
MTR6R6
METAR K6R6 260653Z AUTO 06003KT 19/17 A2994 RMK AO1 SLP108 T01890167





000
SAUS44 KMAF 260655
MTR6R6
METAR K6R6 260653Z AUTO 06003KT 19/17 A2994 RMK AO1 SLP108 T01890167





000
SAUS44 KMAF 260554
MTR6R6
METAR K6R6 260553Z AUTO 04005KT 19/17 A2995 RMK AO1 SLP113 T01890172
10267 20178 402940150 51015





000
SAUS44 KMAF 260554
MTR6R6
METAR K6R6 260553Z AUTO 04005KT 19/17 A2995 RMK AO1 SLP113 T01890172
10267 20178 402940150 51015





000
SAUS44 KMAF 260454
MTR6R6
METAR K6R6 260453Z AUTO 03006KT 18/17 A2994 RMK AO1 SLP112 T01830167





000
SAUS44 KMAF 260454
MTR6R6
METAR K6R6 260453Z AUTO 03006KT 18/17 A2994 RMK AO1 SLP112 T01830167





000
SAUS44 KMAF 260358 COR
MTRGDP
METAR KGDP 260351Z AUTO 26015KT 10SM CLR 15/M06 A3011 RMK AO2 SLP145
T01501056





000
SAUS44 KMAF 260354
MTR6R6
METAR K6R6 260353Z AUTO 01007KT 18/17 A2993 RMK AO1 SLP110 T01830167





000
SAUS44 KMAF 260254
MTR6R6
METAR K6R6 260253Z AUTO 05007KT 19/17 A2990 RMK AO1 SLP100 T01940172
51027





000
SAUS44 KMAF 260254
MTR6R6
METAR K6R6 260253Z AUTO 05007KT 19/17 A2990 RMK AO1 SLP100 T01940172
51027





000
SAUS44 KMAF 260203 COR
MTRGDP
METAR KGDP 260151Z AUTO 24011G20KT 10SM CLR 16/M06 A3005 RMK AO2 PK
WND 26030/0115 SLP131 T01561056





000
SAUS44 KMAF 260203 COR
MTRGDP
METAR KGDP 260151Z AUTO 24011G20KT 10SM CLR 16/M06 A3005 RMK AO2 PK
WND 26030/0115 SLP131 T01561056





000
SAUS44 KMAF 260202 COR
MTRGDP
METAR KGDP 260151Z AUTO 24011G20KT 10SM CLR 16/M06 A3005 RMK AO2 PK
WND 26030/0115 SLP131 T01561056





000
SAUS44 KMAF 260202 COR
MTRGDP
METAR KGDP 260151Z AUTO 24011G20KT 10SM CLR 16/M06 A3005 RMK AO2 PK
WND 26030/0115 SLP131 T01561056





000
SAUS44 KMAF 260200 COR
MTRGDP
METAR KGDP 260151Z AUTO 24011G20KT 10SM CLR 16/M06 A3005 RMK AO2 PK
WND 26030/0115 SLP131 T01561056





000
SAUS44 KMAF 260159 COR
MTR6R6
METAR K6R6 260153Z AUTO 09008KT 21/17 A2988 RMK AO1 SLP091 T02110167





000
SAUS44 KMAF 260159 COR
MTRGDP
METAR KGDP 260151Z AUTO 24011G20KT 10SM CLR 16/M06 A3005 RMK AO2 PK
WND 26030/0115 SLP131 T01561056





000
SAUS44 KMAF 260154
MTR6R6
METAR K6R6 260153Z AUTO 09008KT 21/17 A2988 RMK AO1 SLP091 T02110167





000
SAUS44 KMAF 260154
MTR6R6
METAR K6R6 260153Z AUTO 09008KT 21/17 A2988 RMK AO1 SLP091 T02110167





    US Dept of Commerce
    National Oceanic and Atmospheric Administration
    National Weather Service
    1325 East West Highway
    Silver Spring, MD 20910
    Page Author: NWS Internet Services Team
Disclaimer
Information Quality
Credits
Glossary
Privacy Policy
Freedom of Information Act (FOIA)
About Us
Career Opportunities